Regional Weather Roundup
Issued by NWS

Home | Current Version | Previous Version | Graphics & Text | Print | Product List | Glossary On
Versions: 1 2 3 4 5 6 7 8 9 10 11 12 13 14 15 16 17 18 19 20 21 22 23 24 25 26 27 28 29 30 31 32 33 34 35 36 37 38 39 40 41 42 43 44 45 46 47 48 49 50
000
ASUS43 KMKX 041121
RWRWI

WISCONSIN REGIONAL WEATHER ROUNDUP
NATIONAL WEATHER SERVICE MILWAUKEE/SULLIVAN WI
500 AM CST WED MAR 04 2015

NOTE: "FAIR" INDICATES FEW OR NO CLOUDS BELOW 12,000 FEET WITH NO
SIGNIFICANT WEATHER AND/OR OBSTRUCTIONS TO VISIBILITY.

WIZ001-002-006>008-014>016-023>028-041200-
NORTHWEST WISCONSIN

CITY           SKY/WX    TMP DP  RH WIND       PRES   REMARKS
SUPERIOR ARPT  CLEAR     -7 -13  76 SW6       30.05R WCI -20
ASHLAND        CLEAR     -2 -11  65 W12       30.00R WCI -20
HAYWARD        CLEAR     -3 -12  65 W5        29.99R WCI -13
SIREN          CLEAR     -4 -10  77 W7        30.06R WCI -18
CUMBERLAND     CLEAR     -6 -13  71 W9        30.01R WCI -22
RICE LAKE      CLEAR     -3  -9  75 W3        30.05R
CHETEK         CLEAR     -1  -8  73 W6        30.03R WCI -13
LADYSMITH      PTCLDY    -2 -10  69 W7        30.00R WCI -16
EAU CLAIRE     CLEAR      1  -8  66 W12       30.05R WCI -16
MENOMONIE      CLEAR      2  -7  67 W9        30.06R WCI -13
NEW RICHMOND   CLEAR     -3  -9  75 W10       30.07S WCI -20
OSCEOLA        CLEAR     -2  -8  74 W9        30.11S WCI -18
$$

WIZ003>005-009-010-017-018-041200-
NORTH CENTRAL WISCONSIN

CITY           SKY/WX    TMP DP  RH WIND       PRES   REMARKS
MANITOWISH WTR CLEAR     -3 -10  73 W9        29.88R WCI -19
ARBOR VITAE    FAIR       0  -8  70 W8        29.88R WCI -15
WOODRUFF       FAIR       0  -8  70 W8        29.88R WCI -15
RHINELANDER    CLEAR     -1 -10  65 W13G21    29.87R WCI -19
EAGLE RIVER    CLEAR      0  -8  70 W9G16     29.85R WCI -16
LAND O LAKES   FAIR       0  -6  74 W7        29.84S WCI -13
PHILLIPS       CLEAR     -3 -11  70 W5        29.92R WCI -14
TOMAHAWK       CLEAR     -1  -9  66 W6        29.92R WCI -12
MEDFORD        CLEAR      0  -8  69 W9        29.93R WCI -16
MERRILL        CLEAR      2  -8  61 NW10      29.93R WCI -14
$$

WIZ029-030-035-036-043>047-041200-
CENTRAL WISCONSIN

CITY           SKY/WX    TMP DP  RH WIND       PRES   REMARKS
WAUSAU         CLEAR      3  -6  66 NW12      29.92R WCI -13
MOSINEE        CLEAR      3  -4  72 W13       29.95R WCI -14
MARSHFIELD     CLEAR      3  -5  69 NW14      29.96R WCI -15
STEVENS POINT  CLEAR      3  -6  65 W8        29.97R WCI -10
WAUPACA        PTCLDY    11  -1  58 W9G21     29.98R WCI  -2
WAUTOMA        FAIR       9  -1  63 NW13G20   29.99R WCI  -6
WISC RAPIDS    CLEAR      5  -6  60 NW12      30.00R WCI -11
CAMP DOUGLAS   CLEAR      7  -2  66 W9        30.03R WCI  -7
$$

WIZ011>013-019>022-031-037>040-048>050-041200-
NORTHEAST WISCONSIN

CITY           SKY/WX    TMP DP  RH WIND       PRES   REMARKS
ANTIGO         CLEAR      2  -4  75 NW10      29.87R WCI -13
SHAWANO        PTCLDY    12   1  59 NW8       29.94R WCI   1
OCONTO         PTCLDY    11  -2  56 W10G18    29.93R WCI  -2
STURGEON BAY   CLEAR     10   0  61 W12       29.93R WCI  -4
GREEN BAY      PTCLDY    13   3  64 W9        29.94R WCI   1
MANITOWOC      CLEAR     14   6  70 W10       29.94R WCI   1
APPLETON       NOT AVBL
CLINTONVILLE   PTCLDY    10   1  67 W9        29.95R WCI  -2
OSHKOSH        CLEAR     11   2  67 W9        29.96R WCI  -2
$$

WIZ032>034-041-042-053>061-041200-
SOUTHWEST WISCONSIN

CITY           SKY/WX    TMP DP  RH WIND       PRES   REMARKS
LA CROSSE      PTCLDY     8  -1  66 NW13      30.10R WCI  -8
SPARTA         CLEAR      8  -2  64 NW8G18    30.06R WCI  -5
VIROQUA        PTCLDY     5  -1  74 NW10      30.02R WCI -10
BOSCOBEL       CLEAR     10  -1  61 W6        30.10R WCI   0
PRAIRIE DU CHI PTCLDY     8  -2  62 NW13      30.11R WCI  -7
PLATTEVILLE    PTCLDY    10   4  74 W13G18    30.05R WCI  -5
$$

WIZ056-057-062-063-064-067-068-041200-
SOUTH CENTRAL WISCONSIN

CITY           SKY/WX    TMP DP  RH WIND       PRES   REMARKS
REEDSBURG      CLEAR     10   2  71 W8        30.01R WCI  -3
BARABOO/DELLS  CLEAR      9  -2  61 NW12      30.01R WCI  -6
LONE ROCK      CLEAR     11   0  61 W14       30.07R WCI  -5
MINERAL POINT  PTCLDY    12   1  62 NW12      30.02R WCI  -2
MADISON        MOCLDY    13   4  67 W8        30.00R WCI   2
MIDDLETON      CLEAR     13   4  65 NW10      30.01R WCI   0
WATERTOWN      CLEAR     14   6  71 NW6       29.98R WCI   5
MONROE         MOCLDY    14   9  79 NW15      29.99R WCI  -1
JANESVILLE     PTCLDY    18   9  68 NW12      29.98R WCI   5
$$

WIZ051-052-058>065-066-070>072-041200-
SOUTHEAST WISCONSIN

CITY           SKY/WX    TMP DP  RH WIND       PRES   REMARKS
MILWAUKEE      CLEAR     19   7  59 NW15G21   29.96R WCI   5
WAUKESHA       CLEAR     16   7  67 NW17      29.96R WCI   0
MILWAUKEE/TIMM PTCLDY    18   7  62 NW13      29.97R WCI   4
RACINE         PTCLDY    20   9  62 NW9       29.97R WCI   9
BURLINGTON     CLEAR     15   8  75 NW10      29.97R WCI   2
KENOSHA        FAIR      19   9  65 NW10      29.95R WCI   7
FOND DU LAC    CLEAR     12   2  64 W12       29.97R WCI  -2
SHEBOYGAN      CLEAR     14   5  67 NW13      29.94R WCI   0
WEST BEND      CLEAR     14   5  67 W9        29.95R WCI   2
JUNEAU         CLEAR     11   2  66 NW8       29.98R WCI   0
$$

LSZ147-162-041200-
LAKE SUPERIOR

STATION/POSITION TIME  TEMP    WIND        PRES    WAVE
                       AIR SEA DIR/SP/G            HT/PER
                 (UTC) (F)     (DEG/KT/KT) (MB)    (FT/S)
DEVILS ISLAND    1000    4     280/ 24/ 27 1015.7R
PORT WING        1000    4     280/ 16/ 23 1015.6
SAXON HARBOR     1040    1     230/  5/ 10 1015.6R
$$

LMZ867-665-643>646-041200-
LAKE MICHIGAN

STATION/POSITION TIME  TEMP    WIND        PRES    WAVE
                       AIR SEA DIR/SP/G            HT/PER
                 (UTC) (F)     (DEG/KT/KT) (MB)    (FT/S)
NORTHPORT PIER   1104   12     280/  8/ 16 1012.2R
SISTER BAY       1013   11     310/ 13/ 14   N/A
KEWAUNEE LAKESHO 1000   17     300/ 14/ 24 1011.0R
SHEBOYGAN LAKESH 1100   16     300/ 16/ 18 1015.6R
PORT WASHINGTON  1000   19     300/  6/ 14 1013.9R
MILWAUKEE LAKESH 1100   19     300/ 11/ 14   N/A
KENOSHA   LAKESH 1000   24     300/  8/ 11 1013.2R
$$

TC  - TEMPERATURE IN CELSIUS
VSB - VISIBILITY IN STATUTE MILES
WCI - WIND CHILL INDEX
HX  - HEAT INDEX




USA.gov is the U.S. government's official web portal to all federal, state and local government web resources and services.